Time,TemperatureF,DewpointF,PressureIn,WindDirection,WindDirectionDegrees,WindSpeedMPH,WindSpeedGustMPH,Humidity,HourlyPrecipIn,Conditions,Clouds,dailyrainin,SolarRadiationWatts/m^2,SoftwareType,DateUTC
2013-08-25 00:04:00,51.6,33.1,29.78,NNW,346,3.0,3.0,49,0.00,,,0.00,0,WeatherCatV1.21B27,2013-08-25 07:04:00,
2013-08-25 00:09:00,51.4,32.9,29.78,NNW,346,1.0,2.0,49,0.00,,,0.00,0,WeatherCatV1.21B27,2013-08-25 07:09:00,
2013-08-25 00:14:00,51.4,32.9,29.77,NW,314,3.0,5.0,49,0.00,,,0.00,0,WeatherCatV1.21B27,2013-08-25 07:14:00,
2013-08-25 00:19:00,51.3,32.8,29.77,NW,308,3.0,6.0,49,0.00,,,0.00,0,WeatherCatV1.21B27,2013-08-25 07:19:00,
2013-08-25 00:24:00,51.3,32.3,29.77,WNW,293,5.0,6.0,48,0.00,,,0.00,0,WeatherCatV1.21B27,2013-08-25 07:24:00,
2013-08-25 00:29:00,51.1,31.6,29.78,WNW,293,5.0,7.0,47,0.00,,,0.00,0,WeatherCatV1.21B27,2013-08-25 07:29:00,
2013-08-25 00:34:00,51.3,31.8,29.78,WNW,301,4.0,6.0,47,0.00,,,0.00,0,WeatherCatV1.21B27,2013-08-25 07:34:00,
2013-08-25 00:39:00,51.3,31.2,29.78,WNW,303,0.0,5.0,46,0.00,,,0.00,0,WeatherCatV1.21B27,2013-08-25 07:39:00,
2013-08-25 00:44:00,51.3,30.7,29.78,NW,316,2.0,3.0,45,0.00,,,0.00,0,WeatherCatV1.21B27,2013-08-25 07:44:00,
2013-08-25 00:49:00,51.3,31.2,29.78,NW,316,0.0,3.0,46,0.00,,,0.00,0,WeatherCatV1.21B27,2013-08-25 07:49:00,
2013-08-25 00:54:00,51.4,30.8,29.78,NW,316,0.0,1.0,45,0.00,,,0.00,0,WeatherCatV1.21B27,2013-08-25 07:54:00,
2013-08-25 00:59:00,51.6,31.0,29.78,NW,316,0.0,1.0,45,0.00,,,0.00,0,WeatherCatV1.21B27,2013-08-25 07:59:00,
2013-08-25 01:04:00,51.6,31.0,29.78,NW,316,0.0,0.0,45,0.00,,,0.00,0,WeatherCatV1.21B27,2013-08-25 08:04:00,
2013-08-25 01:09:00,51.4,30.2,29.78,NW,316,2.0,3.0,44,0.00,,,0.00,0,WeatherCatV1.21B27,2013-08-25 08:09:00,
2013-08-25 01:14:00,51.3,30.7,29.78,NW,317,0.0,0.0,45,0.00,,,0.00,0,WeatherCatV1.21B27,2013-08-25 08:14:00,
2013-08-25 01:19:00,51.3,30.7,29.78,NW,318,3.0,4.0,45,0.00,,,0.00,0,WeatherCatV1.21B27,2013-08-25 08:19:00,
2013-08-25 01:24:00,51.6,29.8,29.78,NW,320,3.0,4.0,43,0.00,,,0.00,0,WeatherCatV1.21B27,2013-08-25 08:24:00,
2013-08-25 01:29:00,51.9,30.1,29.78,NNW,328,2.0,4.0,43,0.00,,,0.00,0,WeatherCatV1.21B27,2013-08-25 08:29:00,
2013-08-25 01:34:00,52.0,29.6,29.78,NNW,332,3.0,4.0,42,0.00,,,0.00,0,WeatherCatV1.21B27,2013-08-25 08:34:00,
2013-08-25 01:39:00,52.0,29.0,29.78,NNW,339,0.0,4.0,41,0.00,,,0.00,0,WeatherCatV1.21B27,2013-08-25 08:39:00,
2013-08-25 01:44:00,51.9,29.0,29.77,NNW,339,2.0,3.0,41,0.00,,,0.00,0,WeatherCatV1.21B27,2013-08-25 08:44:00,
2013-08-25 01:49:00,51.6,28.7,29.77,NNW,340,0.0,0.0,41,0.00,,,0.00,0,WeatherCatV1.21B27,2013-08-25 08:49:00,
2013-08-25 01:54:00,51.4,28.5,29.77,NNW,341,3.0,3.0,41,0.00,,,0.00,0,WeatherCatV1.21B27,2013-08-25 08:54:00,
2013-08-25 01:59:00,51.3,29.0,29.77,NNW,340,0.0,0.0,42,0.00,,,0.00,0,WeatherCatV1.21B27,2013-08-25 08:59:00,
2013-08-25 02:04:00,51.1,27.6,29.77,SSW,209,1.0,3.0,40,0.00,,,0.00,0,WeatherCatV1.21B27,2013-08-25 09:04:00,
2013-08-25 02:09:00,51.1,28.2,29.77,West,276,0.0,2.0,41,0.00,,,0.00,0,WeatherCatV1.21B27,2013-08-25 09:09:00,
2013-08-25 02:14:00,51.3,27.8,29.79,WNW,301,3.0,7.0,40,0.00,,,0.00,0,WeatherCatV1.21B27,2013-08-25 09:14:00,
2013-08-25 02:19:00,51.3,28.4,29.79,WNW,293,5.0,5.0,41,0.00,,,0.00,0,WeatherCatV1.21B27,2013-08-25 09:19:00,
2013-08-25 02:24:00,51.3,27.8,29.79,WNW,293,3.0,4.0,40,0.00,,,0.00,0,WeatherCatV1.21B27,2013-08-25 09:24:00,
2013-08-25 02:29:00,51.3,27.8,29.80,WNW,293,2.0,3.0,40,0.00,,,0.00,0,WeatherCatV1.21B27,2013-08-25 09:29:00,
2013-08-25 02:34:00,51.3,27.2,29.80,WNW,293,0.0,3.0,39,0.00,,,0.00,0,WeatherCatV1.21B27,2013-08-25 09:34:00,
2013-08-25 02:39:00,51.3,27.2,29.80,WNW,293,0.0,1.0,39,0.00,,,0.00,0,WeatherCatV1.21B27,2013-08-25 09:39:00,
2013-08-25 02:44:00,51.3,25.9,29.80,WNW,293,0.0,0.0,37,0.00,,,0.00,0,WeatherCatV1.21B27,2013-08-25 09:44:00,
2013-08-25 02:49:00,51.3,27.2,29.80,WNW,293,1.0,3.0,39,0.00,,,0.00,0,WeatherCatV1.21B27,2013-08-25 09:49:00,
2013-08-25 02:54:00,51.1,27.0,29.80,WNW,293,2.0,2.0,39,0.00,,,0.00,0,WeatherCatV1.21B27,2013-08-25 09:54:00,
2013-08-25 02:59:00,51.3,26.6,29.80,WNW,297,0.0,0.0,38,0.00,,,0.00,0,WeatherCatV1.21B27,2013-08-25 09:59:00,
2013-08-25 03:04:00,51.1,27.0,29.80,WNW,297,3.0,3.0,39,0.00,,,0.00,0,WeatherCatV1.21B27,2013-08-25 10:04:00,
2013-08-25 03:09:00,51.1,27.0,29.80,WNW,297,0.0,0.0,39,0.00,,,0.00,0,WeatherCatV1.21B27,2013-08-25 10:09:00,
2013-08-25 03:14:00,51.1,27.0,29.77,WNW,297,0.0,0.0,39,0.00,,,0.00,0,WeatherCatV1.21B27,2013-08-25 10:14:00,
2013-08-25 03:19:00,51.0,26.9,29.77,NW,324,0.0,3.0,39,0.00,,,0.00,0,WeatherCatV1.21B27,2013-08-25 10:19:00,
2013-08-25 03:24:00,51.0,26.9,29.77,WNW,288,2.0,7.0,39,0.00,,,0.00,0,WeatherCatV1.21B27,2013-08-25 10:24:00,
2013-08-25 03:29:00,51.0,26.9,29.77,WNW,301,0.0,0.0,39,0.00,,,0.00,0,WeatherCatV1.21B27,2013-08-25 10:29:00,
2013-08-25 03:34:00,51.0,26.9,29.78,WNW,301,0.0,1.0,39,0.00,,,0.00,0,WeatherCatV1.21B27,2013-08-25 10:34:00,
2013-08-25 03:39:00,51.0,27.5,29.78,WNW,301,0.0,0.0,40,0.00,,,0.00,0,WeatherCatV1.21B27,2013-08-25 10:39:00,
2013-08-25 03:44:00,51.0,26.3,29.78,NW,306,0.0,1.0,38,0.00,,,0.00,0,WeatherCatV1.21B27,2013-08-25 10:44:00,
2013-08-25 03:49:00,51.3,26.6,29.78,NNW,340,0.0,3.0,38,0.00,,,0.00,0,WeatherCatV1.21B27,2013-08-25 10:49:00,
2013-08-25 03:54:00,51.3,26.6,29.78,NNW,334,4.0,5.0,38,0.00,,,0.00,0,WeatherCatV1.21B27,2013-08-25 10:54:00,
2013-08-25 03:59:00,51.4,27.3,29.78,NW,320,0.0,2.0,39,0.00,,,0.00,0,WeatherCatV1.21B27,2013-08-25 10:59:00,
2013-08-25 04:04:00,51.4,27.3,29.78,NW,322,3.0,5.0,39,0.00,,,0.00,0,WeatherCatV1.21B27,2013-08-25 11:04:00,
2013-08-25 04:09:00,51.4,27.3,29.78,NW,316,0.0,5.0,39,0.00,,,0.00,0,WeatherCatV1.21B27,2013-08-25 11:09:00,
2013-08-25 04:14:00,51.4,27.9,29.79,NW,314,4.0,4.0,40,0.00,,,0.00,0,WeatherCatV1.21B27,2013-08-25 11:14:00,
2013-08-25 04:19:00,51.4,27.9,29.79,NW,314,3.0,4.0,40,0.00,,,0.00,0,WeatherCatV1.21B27,2013-08-25 11:19:00,
2013-08-25 04:24:00,51.3,28.4,29.79,NW,313,0.0,4.0,41,0.00,,,0.00,0,WeatherCatV1.21B27,2013-08-25 11:24:00,
2013-08-25 04:29:00,51.1,28.2,29.79,NNW,347,0.0,3.0,41,0.00,,,0.00,0,WeatherCatV1.21B27,2013-08-25 11:29:00,
2013-08-25 04:34:00,51.1,28.2,29.78,WNW,301,5.0,7.0,41,0.00,,,0.00,0,WeatherCatV1.21B27,2013-08-25 11:34:00,
2013-08-25 04:39:00,51.1,28.2,29.78,WNW,301,0.0,2.0,41,0.00,,,0.00,0,WeatherCatV1.21B27,2013-08-25 11:39:00,
2013-08-25 04:44:00,51.3,28.4,29.79,WNW,301,6.0,9.0,41,0.00,,,0.00,0,WeatherCatV1.21B27,2013-08-25 11:44:00,
2013-08-25 04:49:00,51.3,28.4,29.79,NW,316,2.0,6.0,41,0.00,,,0.00,0,WeatherCatV1.21B27,2013-08-25 11:49:00,
2013-08-25 04:54:00,51.4,28.5,29.79,WNW,301,3.0,4.0,41,0.00,,,0.00,0,WeatherCatV1.21B27,2013-08-25 11:54:00,
2013-08-25 04:59:00,51.4,27.9,29.79,WNW,283,0.0,3.0,40,0.00,,,0.00,0,WeatherCatV1.21B27,2013-08-25 11:59:00,
2013-08-25 05:04:00,51.7,28.2,29.79,North,355,0.0,4.0,40,0.00,,,0.00,0,WeatherCatV1.21B27,2013-08-25 12:04:00,
2013-08-25 05:09:00,51.7,28.2,29.79,NW,326,0.0,4.0,40,0.00,,,0.00,0,WeatherCatV1.21B27,2013-08-25 12:09:00,
2013-08-25 05:14:00,52.0,27.8,29.80,North,353,2.0,7.0,39,0.00,,,0.00,0,WeatherCatV1.21B27,2013-08-25 12:14:00,
2013-08-25 05:19:00,52.2,28.6,29.80,WNW,283,0.0,0.0,40,0.00,,,0.00,0,WeatherCatV1.21B27,2013-08-25 12:19:00,
2013-08-25 05:24:00,52.0,28.4,29.80,WNW,293,6.0,9.0,40,0.00,,,0.00,0,WeatherCatV1.21B27,2013-08-25 12:24:00,
2013-08-25 05:29:00,51.9,28.4,29.81,SW,215,0.0,0.0,40,0.00,,,0.00,0,WeatherCatV1.21B27,2013-08-25 12:29:00,
2013-08-25 05:34:00,51.7,28.2,29.81,WSW,246,2.0,4.0,40,0.00,,,0.00,0,WeatherCatV1.21B27,2013-08-25 12:34:00,
2013-08-25 05:39:00,51.4,28.5,29.81,SW,231,0.0,1.0,41,0.00,,,0.00,0,WeatherCatV1.21B27,2013-08-25 12:39:00,
2013-08-25 05:44:00,51.3,28.4,29.81,West,264,0.0,3.0,41,0.00,,,0.00,0,WeatherCatV1.21B27,2013-08-25 12:44:00,
2013-08-25 05:49:00,51.3,28.4,29.81,NNW,328,0.0,0.0,41,0.00,,,0.00,0,WeatherCatV1.21B27,2013-08-25 12:49:00,
2013-08-25 05:54:00,51.1,28.8,29.81,NNW,328,0.0,0.0,42,0.00,,,0.00,0,WeatherCatV1.21B27,2013-08-25 12:54:00,
2013-08-25 05:59:00,51.0,28.7,29.81,NNW,329,0.0,1.0,42,0.00,,,0.00,0,WeatherCatV1.21B27,2013-08-25 12:59:00,
2013-08-25 06:04:00,50.8,28.5,29.81,NNW,329,0.0,0.0,42,0.00,,,0.00,0,WeatherCatV1.21B27,2013-08-25 13:04:00,
2013-08-25 06:09:00,50.8,28.5,29.81,NNW,328,0.0,3.0,42,0.00,,,0.00,0,WeatherCatV1.21B27,2013-08-25 13:09:00,
2013-08-25 06:14:00,50.7,29.0,29.84,NNW,328,0.0,3.0,43,0.00,,,0.00,0,WeatherCatV1.21B27,2013-08-25 13:14:00,
2013-08-25 06:19:00,50.5,28.3,29.84,SW,218,0.0,0.0,42,0.00,,,0.00,5,WeatherCatV1.21B27,2013-08-25 13:19:00,
2013-08-25 06:24:00,50.4,28.2,29.84,SW,218,0.0,3.0,42,0.00,,,0.00,9,WeatherCatV1.21B27,2013-08-25 13:24:00,
2013-08-25 06:29:00,50.4,28.8,29.85,SW,219,0.0,0.0,43,0.00,,,0.00,16,WeatherCatV1.21B27,2013-08-25 13:29:00,
2013-08-25 06:34:00,50.4,27.6,29.85,SW,219,0.0,0.0,41,0.00,,,0.00,28,WeatherCatV1.21B27,2013-08-25 13:34:00,
2013-08-25 06:39:00,50.4,28.2,29.85,SW,219,0.0,0.0,42,0.00,,,0.00,46,WeatherCatV1.21B27,2013-08-25 13:39:00,
2013-08-25 06:44:00,50.5,28.9,29.85,SW,219,0.0,0.0,43,0.00,,,0.00,65,WeatherCatV1.21B27,2013-08-25 13:44:00,
2013-08-25 06:49:00,51.0,28.7,29.85,WNW,283,1.0,3.0,42,0.00,,,0.00,70,WeatherCatV1.21B27,2013-08-25 13:49:00,
2013-08-25 06:54:00,51.3,28.4,29.85,WNW,283,0.0,0.0,41,0.00,,,0.00,74,WeatherCatV1.21B27,2013-08-25 13:54:00,
2013-08-25 06:59:00,51.4,28.5,29.86,WNW,283,0.0,0.0,41,0.00,,,0.00,84,WeatherCatV1.21B27,2013-08-25 13:59:00,
2013-08-25 07:04:00,51.7,29.9,29.86,WNW,283,0.0,0.0,43,0.00,,,0.00,97,WeatherCatV1.21B27,2013-08-25 14:04:00,
2013-08-25 07:09:00,51.9,29.5,29.86,WNW,283,0.0,0.0,42,0.00,,,0.00,104,WeatherCatV1.21B27,2013-08-25 14:09:00,
2013-08-25 07:14:00,52.2,29.2,29.88,WNW,283,0.0,0.0,41,0.00,,,0.00,125,WeatherCatV1.21B27,2013-08-25 14:14:00,
2013-08-25 07:19:00,52.3,29.3,29.88,WNW,283,0.0,2.0,41,0.00,,,0.00,134,WeatherCatV1.21B27,2013-08-25 14:19:00,
2013-08-25 07:24:00,52.6,29.0,29.88,NW,324,0.0,4.0,40,0.00,,,0.00,104,WeatherCatV1.21B27,2013-08-25 14:24:00,
2013-08-25 07:29:00,52.8,29.8,29.86,NW,324,0.0,0.0,41,0.00,,,0.00,79,WeatherCatV1.21B27,2013-08-25 14:29:00,
2013-08-25 07:34:00,52.9,29.9,29.86,NW,324,0.0,3.0,41,0.00,,,0.00,77,WeatherCatV1.21B27,2013-08-25 14:34:00,
2013-08-25 07:39:00,52.9,30.4,29.86,NW,324,0.0,0.0,42,0.00,,,0.00,79,WeatherCatV1.21B27,2013-08-25 14:39:00,
2013-08-25 07:44:00,52.9,30.4,29.86,NW,325,0.0,3.0,42,0.00,,,0.00,79,WeatherCatV1.21B27,2013-08-25 14:44:00,
2013-08-25 07:49:00,52.8,30.4,29.86,NW,325,0.0,0.0,42,0.00,,,0.00,69,WeatherCatV1.21B27,2013-08-25 14:49:00,
2013-08-25 07:54:00,52.8,30.9,29.86,NW,325,0.0,0.0,43,0.00,,,0.00,79,WeatherCatV1.21B27,2013-08-25 14:54:00,
2013-08-25 07:59:00,52.6,30.2,29.86,NW,325,0.0,0.0,42,0.00,,,0.00,100,WeatherCatV1.21B27,2013-08-25 14:59:00,
2013-08-25 08:04:00,52.5,29.5,29.86,NW,325,0.0,0.0,41,0.00,,,0.00,144,WeatherCatV1.21B27,2013-08-25 15:04:00,
2013-08-25 08:09:00,52.6,29.0,29.86,NW,325,0.0,0.0,40,0.00,,,0.00,302,WeatherCatV1.21B27,2013-08-25 15:09:00,
2013-08-25 08:14:00,52.9,28.6,29.88,NW,325,0.0,0.0,39,0.00,,,0.00,281,WeatherCatV1.21B27,2013-08-25 15:14:00,
2013-08-25 08:19:00,53.2,29.5,29.88,NW,322,1.0,5.0,40,0.00,,,0.00,197,WeatherCatV1.21B27,2013-08-25 15:19:00,
2013-08-25 08:24:00,53.5,29.2,29.88,NW,307,0.0,7.0,39,0.00,,,0.00,160,WeatherCatV1.21B27,2013-08-25 15:24:00,
2013-08-25 08:29:00,53.6,31.1,29.87,NW,310,5.0,9.0,42,0.00,,,0.00,158,WeatherCatV1.21B27,2013-08-25 15:29:00,
2013-08-25 08:34:00,53.8,31.2,29.87,WNW,293,3.0,5.0,42,0.00,,,0.00,107,WeatherCatV1.21B27,2013-08-25 15:34:00,
2013-08-25 08:39:00,53.8,31.8,29.87,WNW,301,6.0,6.0,43,0.00,,,0.00,287,WeatherCatV1.21B27,2013-08-25 15:39:00,
2013-08-25 08:44:00,53.8,32.4,29.86,NW,304,8.0,8.0,44,0.00,,,0.00,315,WeatherCatV1.21B27,2013-08-25 15:44:00,
2013-08-25 08:49:00,53.9,32.5,29.86,WNW,297,0.0,1.0,44,0.00,,,0.00,352,WeatherCatV1.21B27,2013-08-25 15:49:00,
2013-08-25 08:54:00,54.2,33.3,29.86,NW,308,5.0,7.0,45,0.00,,,0.00,367,WeatherCatV1.21B27,2013-08-25 15:54:00,
2013-08-25 08:59:00,54.5,33.6,29.86,NW,326,1.0,6.0,45,0.00,,,0.00,425,WeatherCatV1.21B27,2013-08-25 15:59:00,
2013-08-25 09:04:00,54.7,33.8,29.86,WNW,293,8.0,8.0,45,0.00,,,0.00,427,WeatherCatV1.21B27,2013-08-25 16:04:00,
2013-08-25 09:09:00,55.0,34.0,29.86,West,278,0.0,9.0,45,0.00,,,0.00,167,WeatherCatV1.21B27,2013-08-25 16:09:00,
2013-08-25 09:14:00,55.0,34.0,29.89,WNW,288,8.0,10.0,45,0.00,,,0.00,397,WeatherCatV1.21B27,2013-08-25 16:14:00,
2013-08-25 09:19:00,55.0,34.6,29.89,NW,304,5.0,6.0,46,0.00,,,0.00,390,WeatherCatV1.21B27,2013-08-25 16:19:00,
2013-08-25 09:24:00,55.1,33.6,29.89,WNW,283,2.0,8.0,44,0.00,,,0.00,397,WeatherCatV1.21B27,2013-08-25 16:24:00,
2013-08-25 09:29:00,55.3,34.3,29.89,West,273,7.0,8.0,45,0.00,,,0.00,396,WeatherCatV1.21B27,2013-08-25 16:29:00,
2013-08-25 09:34:00,55.4,34.4,29.89,NW,318,3.0,7.0,45,0.00,,,0.00,427,WeatherCatV1.21B27,2013-08-25 16:34:00,
2013-08-25 09:39:00,55.7,34.1,29.89,WNW,297,4.0,9.0,44,0.00,,,0.00,434,WeatherCatV1.21B27,2013-08-25 16:39:00,
2013-08-25 09:44:00,56.0,34.4,29.87,WNW,299,3.0,7.0,44,0.00,,,0.00,443,WeatherCatV1.21B27,2013-08-25 16:44:00,
2013-08-25 09:49:00,56.3,34.7,29.87,WNW,283,2.0,5.0,44,0.00,,,0.00,462,WeatherCatV1.21B27,2013-08-25 16:49:00,
2013-08-25 09:54:00,56.6,34.4,29.87,WNW,293,6.0,9.0,43,0.00,,,0.00,506,WeatherCatV1.21B27,2013-08-25 16:54:00,
2013-08-25 09:59:00,56.7,35.6,29.88,WNW,297,1.0,5.0,45,0.00,,,0.00,499,WeatherCatV1.21B27,2013-08-25 16:59:00,
2013-08-25 10:04:00,57.0,34.1,29.88,WSW,244,9.0,13.0,42,0.00,,,0.00,540,WeatherCatV1.21B27,2013-08-25 17:04:00,
2013-08-25 10:09:00,57.6,34.7,29.88,NW,309,5.0,6.0,42,0.00,,,0.00,563,WeatherCatV1.21B27,2013-08-25 17:09:00,
2013-08-25 10:14:00,58.1,34.5,29.87,NW,306,7.0,14.0,41,0.00,,,0.00,568,WeatherCatV1.21B27,2013-08-25 17:14:00,
2013-08-25 10:19:00,58.4,34.8,29.87,NW,313,4.0,13.0,41,0.00,,,0.00,598,WeatherCatV1.21B27,2013-08-25 17:19:00,
2013-08-25 10:24:00,58.6,35.0,29.87,WNW,301,6.0,14.0,41,0.00,,,0.00,605,WeatherCatV1.21B27,2013-08-25 17:24:00,
2013-08-25 10:29:00,58.7,34.4,29.88,NNW,331,9.0,15.0,40,0.00,,,0.00,643,WeatherCatV1.21B27,2013-08-25 17:29:00,
2013-08-25 10:34:00,59.0,34.1,29.88,WNW,283,8.0,13.0,39,0.00,,,0.00,601,WeatherCatV1.21B27,2013-08-25 17:34:00,
2013-08-25 10:39:00,59.5,34.5,29.88,WNW,297,4.0,9.0,39,0.00,,,0.00,663,WeatherCatV1.21B27,2013-08-25 17:39:00,
2013-08-25 10:44:00,59.5,34.5,29.86,West,259,9.0,14.0,39,0.00,,,0.00,661,WeatherCatV1.21B27,2013-08-25 17:44:00,
2013-08-25 10:49:00,59.5,35.2,29.86,WSW,237,4.0,4.0,40,0.00,,,0.00,682,WeatherCatV1.21B27,2013-08-25 17:49:00,
2013-08-25 10:54:00,59.5,33.9,29.86,West,278,4.0,11.0,38,0.00,,,0.00,211,WeatherCatV1.21B27,2013-08-25 17:54:00,
2013-08-25 10:59:00,59.6,35.2,29.87,West,261,0.0,4.0,40,0.00,,,0.00,179,WeatherCatV1.21B27,2013-08-25 17:59:00,
2013-08-25 11:04:00,59.9,35.5,29.87,West,273,7.0,15.0,40,0.00,,,0.00,721,WeatherCatV1.21B27,2013-08-25 18:04:00,
2013-08-25 11:09:00,59.9,35.5,29.87,WNW,288,5.0,6.0,40,0.00,,,0.00,775,WeatherCatV1.21B27,2013-08-25 18:09:00,
2013-08-25 11:14:00,60.4,36.0,29.85,SW,230,5.0,13.0,40,0.00,,,0.00,791,WeatherCatV1.21B27,2013-08-25 18:14:00,
2013-08-25 11:19:00,60.9,37.0,29.85,WNW,288,2.0,4.0,41,0.00,,,0.00,868,WeatherCatV1.21B27,2013-08-25 18:19:00,
2013-08-25 11:24:00,61.3,36.1,29.85,West,264,0.0,5.0,39,0.00,,,0.00,288,WeatherCatV1.21B27,2013-08-25 18:24:00,
2013-08-25 11:29:00,61.3,36.1,29.85,WNW,297,7.0,13.0,39,0.00,,,0.00,819,WeatherCatV1.21B27,2013-08-25 18:29:00,
2013-08-25 11:34:00,61.0,35.9,29.85,WNW,288,6.0,12.0,39,0.00,,,0.00,206,WeatherCatV1.21B27,2013-08-25 18:34:00,
2013-08-25 11:39:00,60.2,35.8,29.85,WNW,303,10.0,10.0,40,0.00,,,0.00,214,WeatherCatV1.21B27,2013-08-25 18:39:00,
2013-08-25 11:44:00,59.9,36.1,29.84,WNW,293,6.0,11.0,41,0.00,,,0.00,338,WeatherCatV1.21B27,2013-08-25 18:44:00,
2013-08-25 11:49:00,60.1,35.1,29.84,WNW,299,10.0,18.0,39,0.00,,,0.00,204,WeatherCatV1.21B27,2013-08-25 18:49:00,
2013-08-25 11:54:00,60.2,35.2,29.84,West,263,5.0,14.0,39,0.00,,,0.00,773,WeatherCatV1.21B27,2013-08-25 18:54:00,
2013-08-25 11:59:00,60.5,35.4,29.85,WNW,302,12.0,19.0,39,0.00,,,0.00,788,WeatherCatV1.21B27,2013-08-25 18:59:00,
2013-08-25 12:04:00,60.7,34.9,29.85,WNW,283,6.0,13.0,38,0.00,,,0.00,809,WeatherCatV1.21B27,2013-08-25 19:04:00,
2013-08-25 12:09:00,60.9,36.4,29.85,NW,309,10.0,10.0,40,0.00,,,0.00,823,WeatherCatV1.21B27,2013-08-25 19:09:00,
2013-08-25 12:14:00,61.3,36.8,29.84,WSW,249,0.0,13.0,40,0.00,,,0.00,784,WeatherCatV1.21B27,2013-08-25 19:14:00,
2013-08-25 12:19:00,62.0,33.3,29.84,NW,306,11.0,17.0,34,0.00,,,0.00,824,WeatherCatV1.21B27,2013-08-25 19:19:00,
2013-08-25 12:24:00,62.0,34.7,29.84,WSW,255,11.0,15.0,36,0.00,,,0.00,823,WeatherCatV1.21B27,2013-08-25 19:24:00,
2013-08-25 12:29:00,62.0,36.1,29.83,WSW,244,9.0,14.0,38,0.00,,,0.00,846,WeatherCatV1.21B27,2013-08-25 19:29:00,
2013-08-25 12:34:00,62.4,38.4,29.83,SW,219,3.0,10.0,41,0.00,,,0.00,810,WeatherCatV1.21B27,2013-08-25 19:34:00,
2013-08-25 12:39:00,62.9,34.8,29.83,WNW,283,9.0,11.0,35,0.00,,,0.00,782,WeatherCatV1.21B27,2013-08-25 19:39:00,
2013-08-25 12:44:00,62.1,36.2,29.83,WSW,251,5.0,11.0,38,0.00,,,0.00,867,WeatherCatV1.21B27,2013-08-25 19:44:00,
2013-08-25 12:49:00,62.0,35.4,29.83,WNW,288,9.0,18.0,37,0.00,,,0.00,279,WeatherCatV1.21B27,2013-08-25 19:49:00,
2013-08-25 12:54:00,61.8,35.2,29.83,WNW,283,13.0,16.0,37,0.00,,,0.00,886,WeatherCatV1.21B27,2013-08-25 19:54:00,
2013-08-25 12:59:00,61.8,33.9,29.83,NW,314,12.0,18.0,35,0.00,,,0.00,868,WeatherCatV1.21B27,2013-08-25 19:59:00,
2013-08-25 13:04:00,62.3,32.8,29.83,NW,314,11.0,13.0,33,0.00,,,0.00,858,WeatherCatV1.21B27,2013-08-25 20:04:00,
2013-08-25 13:09:00,62.9,34.1,29.83,West,271,10.0,14.0,34,0.00,,,0.00,844,WeatherCatV1.21B27,2013-08-25 20:09:00,
2013-08-25 13:14:00,63.4,33.8,29.83,West,274,3.0,13.0,33,0.00,,,0.00,214,WeatherCatV1.21B27,2013-08-25 20:14:00,
2013-08-25 13:19:00,63.5,34.6,29.83,WNW,283,7.0,12.0,34,0.00,,,0.00,909,WeatherCatV1.21B27,2013-08-25 20:19:00,
2013-08-25 13:24:00,63.4,33.8,29.83,WNW,293,12.0,19.0,33,0.00,,,0.00,895,WeatherCatV1.21B27,2013-08-25 20:24:00,
2013-08-25 13:29:00,63.9,33.5,29.83,WSW,246,5.0,12.0,32,0.00,,,0.00,947,WeatherCatV1.21B27,2013-08-25 20:29:00,
2013-08-25 13:34:00,64.8,35.0,29.83,WSW,254,3.0,11.0,33,0.00,,,0.00,954,WeatherCatV1.21B27,2013-08-25 20:34:00,
2013-08-25 13:39:00,64.3,33.8,29.83,WSW,255,5.0,16.0,32,0.00,,,0.00,387,WeatherCatV1.21B27,2013-08-25 20:39:00,
2013-08-25 13:45:00,63.4,35.3,29.83,WNW,283,7.0,10.0,35,0.00,,,0.00,306,WeatherCatV1.21B27,2013-08-25 20:45:00,
2013-08-25 13:50:00,63.1,35.7,29.83,WSW,246,6.0,11.0,36,0.00,,,0.00,926,WeatherCatV1.21B27,2013-08-25 20:50:00,
2013-08-25 13:55:00,62.9,36.2,29.83,West,278,10.0,16.0,37,0.00,,,0.00,369,WeatherCatV1.21B27,2013-08-25 20:55:00,
2013-08-25 14:00:00,63.1,37.1,29.82,NW,316,5.0,12.0,38,0.00,,,0.00,865,WeatherCatV1.21B27,2013-08-25 21:00:00,
2013-08-25 14:05:00,63.2,35.8,29.82,West,261,3.0,10.0,36,0.00,,,0.00,367,WeatherCatV1.21B27,2013-08-25 21:05:00,
2013-08-25 14:10:00,63.7,34.8,29.82,WNW,288,4.0,11.0,34,0.00,,,0.00,380,WeatherCatV1.21B27,2013-08-25 21:10:00,
2013-08-25 14:15:00,63.4,35.3,29.83,WNW,288,13.0,22.0,35,0.00,,,0.00,345,WeatherCatV1.21B27,2013-08-25 21:15:00,
2013-08-25 14:20:00,62.7,34.7,29.83,SW,234,14.0,21.0,35,0.00,,,0.00,304,WeatherCatV1.21B27,2013-08-25 21:20:00,
2013-08-25 14:25:00,61.8,35.2,29.83,WNW,293,8.0,15.0,37,0.00,,,0.00,374,WeatherCatV1.21B27,2013-08-25 21:25:00,
2013-08-25 14:30:00,61.5,35.0,29.84,WNW,297,5.0,15.0,37,0.00,,,0.00,274,WeatherCatV1.21B27,2013-08-25 21:30:00,
2013-08-25 14:35:00,61.5,35.7,29.84,WNW,288,8.0,13.0,38,0.00,,,0.00,812,WeatherCatV1.21B27,2013-08-25 21:35:00,
2013-08-25 14:40:00,61.5,35.0,29.84,SW,235,6.0,16.0,37,0.00,,,0.00,297,WeatherCatV1.21B27,2013-08-25 21:40:00,
2013-08-25 14:45:00,61.6,35.7,29.84,West,274,5.0,13.0,38,0.00,,,0.00,737,WeatherCatV1.21B27,2013-08-25 21:45:00,
2013-08-25 14:50:00,62.1,35.5,29.84,WNW,299,13.0,15.0,37,0.00,,,0.00,461,WeatherCatV1.21B27,2013-08-25 21:50:00,
2013-08-25 14:55:00,62.0,34.0,29.84,WNW,283,6.0,20.0,35,0.00,,,0.00,269,WeatherCatV1.21B27,2013-08-25 21:55:00,
2013-08-25 15:00:00,61.8,35.2,29.84,West,273,14.0,19.0,37,0.00,,,0.00,334,WeatherCatV1.21B27,2013-08-25 22:00:00,
2013-08-25 15:05:00,61.6,35.7,29.84,West,272,7.0,17.0,38,0.00,,,0.00,248,WeatherCatV1.21B27,2013-08-25 22:05:00,
2013-08-25 15:10:00,61.6,35.7,29.84,WSW,247,11.0,18.0,38,0.00,,,0.00,339,WeatherCatV1.21B27,2013-08-25 22:10:00,
2013-08-25 15:15:00,62.0,36.1,29.83,WNW,288,7.0,10.0,38,0.00,,,0.00,211,WeatherCatV1.21B27,2013-08-25 22:15:00,
2013-08-25 15:20:00,61.6,35.7,29.83,WNW,301,10.0,15.0,38,0.00,,,0.00,223,WeatherCatV1.21B27,2013-08-25 22:20:00,
2013-08-25 15:25:00,61.2,35.4,29.83,WNW,283,11.0,21.0,38,0.00,,,0.00,308,WeatherCatV1.21B27,2013-08-25 22:25:00,
2013-08-25 15:30:00,60.9,34.5,29.84,WNW,302,11.0,11.0,37,0.00,,,0.00,185,WeatherCatV1.21B27,2013-08-25 22:30:00,
2013-08-25 15:35:00,60.7,36.9,29.84,South,185,5.0,7.0,41,0.00,,,0.00,192,WeatherCatV1.21B27,2013-08-25 22:35:00,
2013-08-25 15:40:00,60.7,36.2,29.84,NW,304,12.0,16.0,40,0.00,,,0.00,213,WeatherCatV1.21B27,2013-08-25 22:40:00,
2013-08-25 15:45:00,60.9,36.4,29.83,NW,310,11.0,12.0,40,0.00,,,0.00,181,WeatherCatV1.21B27,2013-08-25 22:45:00,
2013-08-25 15:50:00,60.7,36.2,29.83,NW,306,9.0,11.0,40,0.00,,,0.00,272,WeatherCatV1.21B27,2013-08-25 22:50:00,
2013-08-25 15:55:00,60.9,35.8,29.83,West,274,14.0,27.0,39,0.00,,,0.00,737,WeatherCatV1.21B27,2013-08-25 22:55:00,
2013-08-25 16:00:00,61.3,35.5,29.83,WSW,255,10.0,19.0,38,0.00,,,0.00,737,WeatherCatV1.21B27,2013-08-25 23:00:00,
2013-08-25 16:05:00,61.3,35.5,29.83,West,265,6.0,16.0,38,0.00,,,0.00,677,WeatherCatV1.21B27,2013-08-25 23:05:00,
2013-08-25 16:10:00,61.6,35.7,29.83,NW,304,11.0,14.0,38,0.00,,,0.00,132,WeatherCatV1.21B27,2013-08-25 23:10:00,
2013-08-25 16:15:00,61.3,35.5,29.83,WSW,240,14.0,18.0,38,0.00,,,0.00,155,WeatherCatV1.21B27,2013-08-25 23:15:00,
2013-08-25 16:20:00,61.2,35.4,29.83,NW,316,15.0,15.0,38,0.00,,,0.00,132,WeatherCatV1.21B27,2013-08-25 23:20:00,
2013-08-25 16:25:00,61.3,34.8,29.83,WSW,257,14.0,18.0,37,0.00,,,0.00,100,WeatherCatV1.21B27,2013-08-25 23:25:00,
2013-08-25 16:30:00,61.0,35.9,29.82,NW,305,11.0,17.0,39,0.00,,,0.00,568,WeatherCatV1.21B27,2013-08-25 23:30:00,
2013-08-25 16:35:00,61.5,34.3,29.82,WNW,293,15.0,22.0,36,0.00,,,0.00,652,WeatherCatV1.21B27,2013-08-25 23:35:00,
2013-08-25 16:40:00,61.5,35.0,29.82,SSE,164,4.0,11.0,37,0.00,,,0.00,144,WeatherCatV1.21B27,2013-08-25 23:40:00,
2013-08-25 16:45:00,62.3,34.3,29.83,WNW,288,5.0,17.0,35,0.00,,,0.00,612,WeatherCatV1.21B27,2013-08-25 23:45:00,
2013-08-25 16:50:00,62.7,34.7,29.83,West,268,5.0,5.0,35,0.00,,,0.00,160,WeatherCatV1.21B27,2013-08-25 23:50:00,
2013-08-25 16:55:00,63.1,35.7,29.83,SW,230,4.0,14.0,36,0.00,,,0.00,638,WeatherCatV1.21B27,2013-08-25 23:55:00,
2013-08-25 17:00:00,62.6,36.6,29.82,WNW,283,5.0,13.0,38,0.00,,,0.00,132,WeatherCatV1.21B27,2013-08-26 00:00:00,
2013-08-25 17:05:00,62.3,36.4,29.82,WNW,288,0.0,2.0,38,0.00,,,0.00,156,WeatherCatV1.21B27,2013-08-26 00:05:00,
2013-08-25 17:10:00,62.1,36.2,29.82,WSW,247,10.0,22.0,38,0.00,,,0.00,483,WeatherCatV1.21B27,2013-08-26 00:10:00,
2013-08-25 17:15:00,62.1,36.2,29.83,WNW,302,4.0,14.0,38,0.00,,,0.00,197,WeatherCatV1.21B27,2013-08-26 00:15:00,
2013-08-25 17:20:00,62.1,36.2,29.83,WNW,293,6.0,14.0,38,0.00,,,0.00,527,WeatherCatV1.21B27,2013-08-26 00:20:00,
2013-08-25 17:25:00,62.3,36.4,29.83,NW,307,11.0,16.0,38,0.00,,,0.00,503,WeatherCatV1.21B27,2013-08-26 00:25:00,
2013-08-25 17:30:00,62.1,36.2,29.83,WNW,302,10.0,20.0,38,0.00,,,0.00,487,WeatherCatV1.21B27,2013-08-26 00:30:00,
2013-08-25 17:35:00,62.1,36.2,29.83,West,272,5.0,16.0,38,0.00,,,0.00,476,WeatherCatV1.21B27,2013-08-26 00:35:00,
2013-08-25 17:40:00,62.3,37.0,29.83,WNW,297,8.0,17.0,39,0.00,,,0.00,443,WeatherCatV1.21B27,2013-08-26 00:40:00,
2013-08-25 17:45:00,62.0,36.1,29.83,West,278,12.0,17.0,38,0.00,,,0.00,380,WeatherCatV1.21B27,2013-08-26 00:45:00,
2013-08-25 17:50:00,62.1,35.5,29.83,WNW,303,15.0,17.0,37,0.00,,,0.00,334,WeatherCatV1.21B27,2013-08-26 00:50:00,
2013-08-25 17:55:00,61.8,35.9,29.83,WNW,283,8.0,18.0,38,0.00,,,0.00,345,WeatherCatV1.21B27,2013-08-26 00:55:00,
2013-08-25 18:00:00,61.3,36.1,29.82,West,279,8.0,13.0,39,0.00,,,0.00,76,WeatherCatV1.21B27,2013-08-26 01:00:00,
2013-08-25 18:05:00,61.0,34.5,29.82,West,261,3.0,19.0,37,0.00,,,0.00,264,WeatherCatV1.21B27,2013-08-26 01:05:00,
2013-08-25 18:10:00,61.0,35.9,29.82,West,279,6.0,16.0,39,0.00,,,0.00,265,WeatherCatV1.21B27,2013-08-26 01:10:00,
2013-08-25 18:15:00,60.5,35.4,29.82,WNW,299,6.0,10.0,39,0.00,,,0.00,255,WeatherCatV1.21B27,2013-08-26 01:15:00,
2013-08-25 18:20:00,60.4,37.8,29.82,West,264,7.0,12.0,43,0.00,,,0.00,232,WeatherCatV1.21B27,2013-08-26 01:20:00,
2013-08-25 18:25:00,60.2,37.6,29.82,WNW,293,6.0,9.0,43,0.00,,,0.00,178,WeatherCatV1.21B27,2013-08-26 01:25:00,
2013-08-25 18:30:00,60.2,36.4,29.84,West,265,4.0,10.0,41,0.00,,,0.00,204,WeatherCatV1.21B27,2013-08-26 01:30:00,
2013-08-25 18:35:00,60.4,36.0,29.84,West,269,8.0,12.0,40,0.00,,,0.00,185,WeatherCatV1.21B27,2013-08-26 01:35:00,
2013-08-25 18:40:00,60.2,36.4,29.84,WNW,283,11.0,17.0,41,0.00,,,0.00,163,WeatherCatV1.21B27,2013-08-26 01:40:00,
2013-08-25 18:45:00,60.1,36.9,29.84,NW,324,8.0,16.0,42,0.00,,,0.00,146,WeatherCatV1.21B27,2013-08-26 01:45:00,
2013-08-25 18:50:00,59.8,36.0,29.84,SW,224,10.0,13.0,41,0.00,,,0.00,128,WeatherCatV1.21B27,2013-08-26 01:50:00,
2013-08-25 18:55:00,59.5,35.8,29.84,NW,306,7.0,14.0,41,0.00,,,0.00,74,WeatherCatV1.21B27,2013-08-26 01:55:00,
2013-08-25 19:00:00,58.9,35.2,29.84,WNW,298,9.0,15.0,41,0.00,,,0.00,21,WeatherCatV1.21B27,2013-08-26 02:00:00,
2013-08-25 19:05:00,58.6,35.6,29.84,WNW,288,7.0,12.0,42,0.00,,,0.00,84,WeatherCatV1.21B27,2013-08-26 02:05:00,
2013-08-25 19:10:00,58.3,35.9,29.84,WNW,301,11.0,12.0,43,0.00,,,0.00,19,WeatherCatV1.21B27,2013-08-26 02:10:00,
2013-08-25 19:15:00,58.0,36.2,29.84,NW,308,6.0,8.0,44,0.00,,,0.00,16,WeatherCatV1.21B27,2013-08-26 02:15:00,
2013-08-25 19:20:00,57.5,36.3,29.84,NW,314,3.0,11.0,45,0.00,,,0.00,14,WeatherCatV1.21B27,2013-08-26 02:20:00,
2013-08-25 19:25:00,57.0,37.5,29.84,WNW,293,5.0,11.0,48,0.00,,,0.00,11,WeatherCatV1.21B27,2013-08-26 02:25:00,
2013-08-25 19:30:00,56.6,37.7,29.83,WNW,283,4.0,12.0,49,0.00,,,0.00,9,WeatherCatV1.21B27,2013-08-26 02:30:00,
2013-08-25 19:35:00,56.3,37.4,29.83,NW,316,4.0,10.0,49,0.00,,,0.00,12,WeatherCatV1.21B27,2013-08-26 02:35:00,
2013-08-25 19:40:00,56.0,36.6,29.83,NW,306,4.0,14.0,48,0.00,,,0.00,5,WeatherCatV1.21B27,2013-08-26 02:40:00,
2013-08-25 19:45:00,55.7,35.8,29.86,WNW,283,2.0,9.0,47,0.00,,,0.00,0,WeatherCatV1.21B27,2013-08-26 02:45:00,
2013-08-25 19:50:00,55.6,36.2,29.86,NW,326,2.0,7.0,48,0.00,,,0.00,0,WeatherCatV1.21B27,2013-08-26 02:50:00,
2013-08-25 19:55:00,55.4,36.6,29.86,WNW,283,4.0,6.0,49,0.00,,,0.00,0,WeatherCatV1.21B27,2013-08-26 02:55:00,
2013-08-25 20:00:00,55.1,36.8,29.86,WNW,283,0.0,3.0,50,0.00,,,0.00,0,WeatherCatV1.21B27,2013-08-26 03:00:00,
2013-08-25 20:05:00,55.0,37.2,29.86,WNW,298,2.0,4.0,51,0.00,,,0.00,0,WeatherCatV1.21B27,2013-08-26 03:05:00,
2013-08-25 20:10:00,54.8,37.5,29.86,WNW,299,5.0,5.0,52,0.00,,,0.00,0,WeatherCatV1.21B27,2013-08-26 03:10:00,
2013-08-25 20:15:00,54.7,37.4,29.84,WNW,299,0.0,0.0,52,0.00,,,0.00,0,WeatherCatV1.21B27,2013-08-26 03:15:00,
2013-08-25 20:20:00,54.5,37.2,29.84,NNW,330,0.0,3.0,52,0.00,,,0.00,0,WeatherCatV1.21B27,2013-08-26 03:20:00,
2013-08-25 20:25:00,54.2,37.4,29.84,NW,314,0.0,3.0,53,0.00,,,0.00,0,WeatherCatV1.21B27,2013-08-26 03:25:00,
2013-08-25 20:30:00,54.2,37.9,29.87,WNW,302,5.0,5.0,54,0.00,,,0.00,0,WeatherCatV1.21B27,2013-08-26 03:30:00,
2013-08-25 20:35:00,54.1,38.3,29.87,WNW,302,0.0,0.0,55,0.00,,,0.00,0,WeatherCatV1.21B27,2013-08-26 03:35:00,
2013-08-25 20:40:00,53.9,38.1,29.87,WNW,301,0.0,2.0,55,0.00,,,0.00,0,WeatherCatV1.21B27,2013-08-26 03:40:00,
2013-08-25 20:45:00,53.8,38.5,29.88,WNW,301,0.0,2.0,56,0.00,,,0.00,0,WeatherCatV1.21B27,2013-08-26 03:45:00,
2013-08-25 20:50:00,53.6,38.7,29.88,WNW,293,0.0,4.0,57,0.00,,,0.00,0,WeatherCatV1.21B27,2013-08-26 03:50:00,
2013-08-25 20:55:00,53.5,38.7,29.88,WNW,293,1.0,5.0,57,0.00,,,0.00,0,WeatherCatV1.21B27,2013-08-26 03:55:00,
2013-08-25 21:00:00,53.3,38.9,29.89,WNW,293,3.0,4.0,58,0.00,,,0.00,0,WeatherCatV1.21B27,2013-08-26 04:00:00,
2013-08-25 21:01:00,53.2,38.8,29.89,WNW,293,3.0,4.0,58,0.00,,,0.00,0,WeatherCatV1.21B27,2013-08-26 04:01:00,
2013-08-25 21:02:00,53.2,38.8,29.89,WNW,293,2.0,3.0,58,0.00,,,0.00,0,WeatherCatV1.21B27,2013-08-26 04:02:00,
2013-08-25 21:04:00,53.2,38.8,29.89,WNW,293,3.0,4.0,58,0.00,,,0.00,0,WeatherCatV1.21B27,2013-08-26 04:04:00,
2013-08-25 21:05:00,53.1,38.7,29.89,WNW,293,3.0,4.0,58,0.00,,,0.00,0,WeatherCatV1.21B27,2013-08-26 04:05:00,
2013-08-25 21:06:00,53.1,38.7,29.89,WNW,293,3.0,4.0,58,0.00,,,0.00,0,WeatherCatV1.21B27,2013-08-26 04:06:00,
2013-08-25 21:11:00,52.9,39.0,29.89,WNW,293,5.0,5.0,59,0.00,,,0.00,0,WeatherCatV1.21B27,2013-08-26 04:11:00,
2013-08-25 21:16:00,52.8,39.3,29.88,WNW,297,4.0,5.0,60,0.00,,,0.00,0,WeatherCatV1.21B27,2013-08-26 04:16:00,
2013-08-25 21:21:00,52.6,39.5,29.88,WNW,297,0.0,0.0,61,0.00,,,0.00,0,WeatherCatV1.21B27,2013-08-26 04:21:00,
2013-08-25 21:26:00,52.5,39.9,29.88,WNW,297,0.0,1.0,62,0.00,,,0.00,0,WeatherCatV1.21B27,2013-08-26 04:26:00,
2013-08-25 21:31:00,52.3,39.7,29.89,WNW,297,0.0,0.0,62,0.00,,,0.00,0,WeatherCatV1.21B27,2013-08-26 04:31:00,
2013-08-25 21:36:00,52.0,39.4,29.89,WNW,297,0.0,2.0,62,0.00,,,0.00,0,WeatherCatV1.21B27,2013-08-26 04:36:00,
2013-08-25 21:41:00,51.9,39.3,29.89,WNW,297,0.0,0.0,62,0.00,,,0.00,0,WeatherCatV1.21B27,2013-08-26 04:41:00,
2013-08-25 21:46:00,51.6,39.8,29.89,WNW,297,0.0,0.0,64,0.00,,,0.00,0,WeatherCatV1.21B27,2013-08-26 04:46:00,
2013-08-25 21:51:00,51.3,39.9,29.89,NW,322,2.0,4.0,65,0.00,,,0.00,0,WeatherCatV1.21B27,2013-08-26 04:51:00,
2013-08-25 21:56:00,51.0,39.7,29.89,NW,322,0.0,0.0,65,0.00,,,0.00,0,WeatherCatV1.21B27,2013-08-26 04:56:00,
2013-08-25 22:01:00,51.0,39.7,29.89,NW,322,2.0,3.0,65,0.00,,,0.00,0,WeatherCatV1.21B27,2013-08-26 05:01:00,
2013-08-25 22:06:00,51.0,39.7,29.89,NW,322,0.0,0.0,65,0.00,,,0.00,0,WeatherCatV1.21B27,2013-08-26 05:06:00,
2013-08-25 22:11:00,51.0,39.7,29.89,NW,322,0.0,0.0,65,0.00,,,0.00,0,WeatherCatV1.21B27,2013-08-26 05:11:00,
2013-08-25 22:16:00,50.8,39.5,29.88,NW,322,0.0,0.0,65,0.00,,,0.00,0,WeatherCatV1.21B27,2013-08-26 05:16:00,
2013-08-25 22:21:00,50.7,38.2,29.88,NW,322,0.0,0.0,62,0.00,,,0.00,0,WeatherCatV1.21B27,2013-08-26 05:21:00,
2013-08-25 22:26:00,50.7,39.8,29.88,NW,322,2.0,2.0,66,0.00,,,0.00,0,WeatherCatV1.21B27,2013-08-26 05:26:00,
2013-08-25 22:31:00,50.5,38.0,29.88,NNW,339,0.0,0.0,62,0.00,,,0.00,0,WeatherCatV1.21B27,2013-08-26 05:31:00,
2013-08-25 22:36:00,50.8,33.8,29.88,South,178,4.0,11.0,52,0.00,,,0.00,0,WeatherCatV1.21B27,2013-08-26 05:36:00,
2013-08-25 22:41:00,51.0,38.8,29.88,South,175,0.0,0.0,63,0.00,,,0.00,0,WeatherCatV1.21B27,2013-08-26 05:41:00,
2013-08-25 22:46:00,51.0,37.6,29.87,South,175,3.0,3.0,60,0.00,,,0.00,0,WeatherCatV1.21B27,2013-08-26 05:46:00,
2013-08-25 22:51:00,51.0,37.6,29.87,South,175,0.0,0.0,60,0.00,,,0.00,0,WeatherCatV1.21B27,2013-08-26 05:51:00,
2013-08-25 22:57:00,51.0,38.4,29.87,South,175,0.0,0.0,62,0.00,,,0.00,0,WeatherCatV1.21B27,2013-08-26 05:57:00,
2013-08-25 23:03:00,51.0,35.4,29.88,South,175,1.0,2.0,55,0.00,,,0.00,0,WeatherCatV1.21B27,2013-08-26 06:03:00,
2013-08-25 23:09:00,51.1,34.1,29.88,South,174,0.0,0.0,52,0.00,,,0.00,0,WeatherCatV1.21B27,2013-08-26 06:09:00,
2013-08-25 23:15:00,51.3,34.3,29.86,East,81,3.0,4.0,52,0.00,,,0.00,0,WeatherCatV1.21B27,2013-08-26 06:15:00,
2013-08-25 23:21:00,51.6,33.1,29.86,SE,135,2.0,4.0,49,0.00,,,0.00,0,WeatherCatV1.21B27,2013-08-26 06:21:00,
2013-08-25 23:27:00,51.7,31.6,29.86,SE,124,3.0,4.0,46,0.00,,,0.00,0,WeatherCatV1.21B27,2013-08-26 06:27:00,
2013-08-25 23:33:00,52.0,32.4,29.86,SE,126,0.0,0.0,47,0.00,,,0.00,0,WeatherCatV1.21B27,2013-08-26 06:33:00,
2013-08-25 23:39:00,52.2,32.0,29.86,SE,124,2.0,3.0,46,0.00,,,0.00,0,WeatherCatV1.21B27,2013-08-26 06:39:00,
2013-08-25 23:44:00,52.3,32.1,29.87,SE,124,0.0,0.0,46,0.00,,,0.00,0,WeatherCatV1.21B27,2013-08-26 06:44:00,
2013-08-25 23:49:00,52.5,31.8,29.87,SE,124,0.0,5.0,45,0.00,,,0.00,0,WeatherCatV1.21B27,2013-08-26 06:49:00,
2013-08-25 23:55:00,52.6,30.8,29.87,East,95,0.0,4.0,43,0.00,,,0.00,0,WeatherCatV1.21B27,2013-08-26 06:55:00,